This demonstration page uses our WeatherBlox Daily Observations layout. Learn more.

Hourly Observations for January 12, 2020

Temp ( °F °C ) Dew Point ( °F °C ) Humidity (%) Winds ( mph kmh ) Pressure ( in mb ) Visibility ( mi km ) Precip ( " mm )
12:54 am 00:54 Clear 13 -10.6 6 -14.4 74 74 S 5 7 30.17 1022 10 16.0934 0 0
1:54 am 01:54 Clear 13 -10.6 6 -14.4 74 74 ESE 3 6 30.16 1022 10 16.0934 0 0
2:54 am 02:54 Clear 14 -10 7 -13.9 73 73 Calm 30.17 1022 10 16.0934 0 0
3:54 am 03:54 Clear 14 -10 8 -13.3 77 77 Calm 30.16 1021 10 16.0934 0 0
4:54 am 04:54 Clear 16 -8.9 8 -13.3 71 71 SE 7 11 30.14 1021 10 16.0934 0 0
5:54 am 05:54 Clear 17 -8.3 8 -13.3 68 68 SSE 7 11 30.16 1021 10 16.0934 0 0
6:54 am 06:54 Mostly Cloudy 16 -8.9 9 -12.8 74 74 SSE 6 9 30.18 1022 10 16.0934 0 0
7:54 am 07:54 Mostly Sunny 16 -8.9 10 -12.2 77 77 E 6 9 30.16 1021 10 16.0934 0 0
8:54 am 08:54 Mostly Cloudy 19 -7.2 13 -10.6 77 77 SSE 13 20 30.17 1022 10 16.0934 0 0
9:50 am 09:50 Cloudy 16 -9 12 -11 86 86 SSE 8 13 30.23 1024 8 12.87472 0 0
9:54 am 09:54 Cloudy 15 -9.4 12 -11.1 88 88 SE 6 9 30.19 1022 7 11.26538 0 0
10:24 am 10:24 Cloudy with Mist and Fog 16 -8.9 13 -10.6 88 88 ESE 3 6 30.23 1024 4 6.43736 0 0
10:39 am 10:39 Cloudy with Mist and Fog 16 -8.9 13 -10.6 88 88 E 5 7 30.22 1023 6 9.65604 0 0
10:54 am 10:54 Cloudy with Mist and Fog 17 -8.3 14 -10 88 88 ENE 7 11 30.16 1021 1 1.60934 0.001 0.001
11:08 am 11:08 Cloudy with Mist and Fog 17 -8.3 14 -10 88 88 ENE 8 13 30.19 1022 1 1.60934 0 0
11:54 am 11:54 Cloudy with Freezing Fog 19 -7.2 16 -8.9 88 88 E 6 9 30.12 1020 0.5 0.80467 0 0
12:09 pm 12:09 Mostly Cloudy with Freezing Fog 19 -7.2 17 -8.3 92 92 ESE 7 11 30.15 1021 0.25 0.402335 0 0
12:26 pm 12:26 Mostly Cloudy with Freezing Fog 20 -6.7 18 -7.8 92 92 ESE 7 11 30.12 1020 0.5 0.80467 0 0
12:54 pm 12:54 Cloudy with Mist and Fog 21 -6.1 19 -7.2 92 92 Calm 30.08 1019 0.75 1.207005 0 0
1:21 pm 13:21 Cloudy with Mist and Fog 21 -6.1 18 -7.8 88 88 NE 3 6 30.1 1019 1 1.60934 0 0
1:54 pm 13:54 Cloudy with Mist and Fog 22 -5.6 20 -6.7 92 92 Calm 30.06 1018 1 1.60934 0 0
2:54 pm 14:54 Cloudy with Mist and Fog 23 -5 21 -6.1 92 92 NW 3 6 30.06 1018 1.25 2.011675 0 0
3:13 pm 15:13 Cloudy with Light Freezing Rain 23 -5 21 -6.1 92 92 NNW 3 6 30.09 1019 1.25 2.011675 0.001 0.001
3:43 pm 15:43 Cloudy with Mist and Fog 24 -4.4 21 -6.1 88 88 N 5 7 30.09 1019 1.5 2.41401 0.001 0.001
3:54 pm 15:54 Cloudy with Mist and Fog 24 -4.4 21 -6.1 88 88 N 3 6 30.07 1018 1.5 2.41401 0.001 0.001
4:11 pm 16:11 Cloudy with Mist and Fog 24 -4.4 21 -6.1 88 88 NNW 5 7 30.1 1019 2 3.21868 0 0
4:47 pm 16:47 Cloudy with Light Snow 24 -4.4 21 -6.1 88 88 NNW 5 7 30.11 1020 1.25 2.011675 0.01 0.254
4:54 pm 16:54 Cloudy with Light Snow 24 -4.4 21 -6.1 88 88 NNW 5 7 30.09 1019 1 1.60934 0.01 0.254
5:01 pm 17:01 Cloudy with Light Snow 24 -4.4 21 -6.1 88 88 NNW 5 7 30.12 1020 0.75 1.207005 0.001 0.001
5:05 pm 17:05 Cloudy with Light Snow 24 -4.4 21 -6.1 88 88 NNW 5 7 30.11 1020 1 1.60934 0.01 0.254
5:12 pm 17:12 Mostly Cloudy with Scattered Snow Showers 24 -4.4 21 -6.1 88 88 NNW 3 6 30.11 1020 0.75 1.207005 0.01 0.254
5:22 pm 17:22 Cloudy with Light Snow 24 -4.4 21 -6.1 88 88 N 3 6 30.11 1020 0.75 1.207005 0.01 0.254
5:33 pm 17:33 Cloudy with Light Snow 24 -4.4 21 -6.1 88 88 N 5 7 30.11 1020 1.25 2.011675 0.02 0.508
5:44 pm 17:44 Mostly Cloudy with Scattered Snow Showers 23 -5 20 -6.7 88 88 N 5 7 30.11 1020 3 4.82802 0.02 0.508
5:54 pm 17:54 Partly Cloudy with Mist and Fog 22 -5.6 19 -7.2 89 89 NNW 3 6 30.09 1019 5 8.0467 0.02 0.508
6:16 pm 18:16 Mostly Cloudy 22 -5.6 20 -6.7 92 92 NW 3 6 30.13 1020 7 11.26538 0 0
6:40 pm 18:40 Cloudy 23 -5 20 -6.7 88 88 NW 3 6 30.13 1020 8 12.87472 0 0
6:54 pm 18:54 Cloudy 23 -5 21 -6.1 92 92 Calm 30.1 1019 9 14.48406 0 0
7:06 pm 19:06 Cloudy 23 -5 21 -6.1 92 92 Calm 30.13 1020 9 14.48406 0 0
7:25 pm 19:25 Cloudy 22 -5.6 20 -6.7 92 92 W 3 6 30.15 1021 8 12.87472 0 0
7:54 pm 19:54 Cloudy 22 -5.6 20 -6.7 92 92 WSW 3 6 30.12 1020 8 12.87472 0 0
8:19 pm 20:19 Mostly Cloudy 22 -5.6 19 -7.2 89 89 Calm 30.16 1021 8 12.87472 0 0
8:54 pm 20:54 Mostly Cloudy with Mist and Fog 19 -7.2 16 -8.9 88 88 Calm 30.13 1020 6 9.65604 0 0
9:54 pm 21:54 Cloudy with Mist and Fog 19 -7.2 17 -8.3 92 92 Calm 30.15 1021 4 6.43736 0 0
10:23 pm 22:23 Cloudy 21 -6.1 18 -7.8 88 88 Calm 30.18 1022 8 12.87472 0 0
10:54 pm 22:54 Cloudy 21 -6.1 19 -7.2 92 92 Calm 30.16 1022 7 11.26538 0 0
11:52 pm 23:52 Cloudy 21 -6 19 -7 93 93 Calm 30.21 1023 7 11.26538 0 0
11:54 pm 23:54 Cloudy 22 -5.6 19 -7.2 89 89 Calm 30.17 1022 7 11.26538 0 0

Powered by AerisWeather